| time (UTC) | temp F | wind direction | speed MPH | gust MPH | rain 1hr in | rain 24hr in | rain mn in | humidity % | barometer mb |
| 20260504081821 | 72 | 335 | 2.0 | 4.0 | 0.64 | 0.84 | 0.65 | 92 | 1013.5 |
| 20260504081405 | 72 | 339 | 3.0 | 4.0 | 0.64 | 0.84 | 0.65 | 92 | 1013.7 |
| 20260504080853 | 72 | 349 | 2.0 | 3.0 | 0.65 | 0.84 | 0.65 | 92 | 1013.9 |
| 20260504080323 | 72 | 359 | 1.0 | 2.0 | 0.65 | 0.84 | 0.65 | 92 | 1013.9 |
| 20260504070330 | 73 | 352 | 0.0 | 1.0 | 0.00 | 0.19 | 0.00 | 92 | 1014.3 |
| 20260504050331 | 73 | 340 | 1.0 | 3.0 | 0.00 | 0.19 | 0.00 | 90 | 1015.6 |
| 20260504045846 | 73 | 348 | 0.0 | 2.0 | 0.00 | 0.19 | 0.00 | 91 | 1015.7 |
| 20260504045340 | 73 | 348 | 1.0 | 2.0 | 0.00 | 0.19 | 0.00 | 91 | 1015.7 |
| 20260504044829 | 73 | 345 | 0.0 | 2.0 | 0.00 | 0.19 | 0.00 | 91 | 1015.7 |
| 20260504044323 | 73 | 345 | 1.0 | 2.0 | 0.00 | 0.19 | 0.00 | 91 | 1015.6 |
| 20260504043847 | 73 | 348 | 1.0 | 1.0 | 0.00 | 0.19 | 0.00 | 91 | 1015.6 |
| 20260504043320 | 73 | 338 | 1.0 | 2.0 | 0.00 | 0.19 | 0.00 | 90 | 1015.5 |
| 20260504042821 | 73 | 334 | 0.0 | 3.0 | 0.00 | 0.19 | 0.00 | 91 | 1015.5 |
| 20260504042342 | 73 | 43 | 2.0 | 3.0 | 0.00 | 0.19 | 0.00 | 90 | 1015.4 |
| 20260504041822 | 73 | 28 | 2.0 | 3.0 | 0.00 | 0.19 | 0.00 | 91 | 1015.6 |
| 20260504041337 | 73 | 53 | 2.0 | 4.0 | 0.00 | 0.19 | 0.00 | 90 | 1015.7 |
| 20260504040850 | 73 | 323 | 2.0 | 5.0 | 0.00 | 0.19 | 0.00 | 91 | 1015.8 |
| 20260504040322 | 73 | 51 | 2.0 | 3.0 | 0.00 | 0.19 | 0.00 | 91 | 1015.6 |
| 20260504035902 | 73 | 91 | 1.0 | 4.0 | 0.00 | 0.19 | 0.00 | 91 | 1015.8 |
| 20260504035322 | 73 | 7 | 1.0 | 5.0 | 0.00 | 0.19 | 0.19 | 90 | 1016.0 |
| 20260504034825 | 73 | 337 | 2.0 | 5.0 | 0.00 | 0.19 | 0.19 | 90 | 1016.1 |
| 20260504034346 | 73 | 340 | 2.0 | 4.0 | 0.00 | 0.19 | 0.19 | 90 | 1016.2 |
| 20260504033836 | 73 | 330 | 2.0 | 5.0 | 0.00 | 0.19 | 0.19 | 90 | 1016.1 |
| 20260504033350 | 73 | 335 | 2.0 | 5.0 | 0.00 | 0.19 | 0.19 | 90 | 1016.0 |
| 20260504032837 | 73 | 345 | 1.0 | 2.0 | 0.00 | 0.19 | 0.19 | 90 | 1016.0 |
| 20260504032330 | 73 | 344 | 1.0 | 3.0 | 0.00 | 0.19 | 0.19 | 90 | 1016.1 |
| 20260504031843 | 73 | 356 | 1.0 | 3.0 | 0.00 | 0.19 | 0.19 | 90 | 1016.0 |
| 20260504031336 | 73 | 327 | 0.0 | 2.0 | 0.00 | 0.19 | 0.19 | 90 | 1016.1 |
| 20260504030821 | 73 | 326 | 0.0 | 3.0 | 0.00 | 0.19 | 0.19 | 90 | 1016.2 |
| 20260504030330 | 73 | 22 | 0.0 | 4.0 | 0.00 | 0.19 | 0.19 | 90 | 1016.2 |
| 20260504025842 | 73 | 5 | 2.0 | 4.0 | 0.00 | 0.19 | 0.19 | 90 | 1016.1 |
| 20260504025343 | 73 | 18 | 1.0 | 4.0 | 0.00 | 0.19 | 0.19 | 90 | 1016.3 |
| 20260504024829 | 73 | 21 | 2.0 | 4.0 | 0.00 | 0.19 | 0.19 | 90 | 1016.1 |
| 20260504024323 | 73 | 37 | 1.0 | 5.0 | 0.00 | 0.19 | 0.19 | 90 | 1016.1 |
| 20260504023835 | 73 | 39 | 2.0 | 5.0 | 0.00 | 0.19 | 0.19 | 89 | 1016.2 |
| 20260504023327 | 73 | 23 | 1.0 | 3.0 | 0.00 | 0.19 | 0.19 | 89 | 1016.2 |
| 20260504022848 | 73 | 338 | 2.0 | 3.0 | 0.00 | 0.19 | 0.19 | 89 | 1016.3 |
| 20260504022329 | 73 | 7 | 1.0 | 3.0 | 0.00 | 0.19 | 0.19 | 89 | 1016.2 |
| 20260504021832 | 73 | 36 | 2.0 | 4.0 | 0.00 | 0.19 | 0.19 | 89 | 1016.3 |
| 20260504021338 | 73 | 25 | 2.0 | 5.0 | 0.00 | 0.19 | 0.19 | 89 | 1016.3 |
| 20260504020832 | 73 | 33 | 3.0 | 5.0 | 0.00 | 0.19 | 0.19 | 89 | 1016.3 |
| 20260504020407 | 73 | 35 | 2.0 | 4.0 | 0.00 | 0.19 | 0.19 | 89 | 1016.2 |
| 20260504015838 | 73 | 47 | 2.0 | 5.0 | 0.00 | 0.19 | 0.19 | 89 | 1016.4 |
| 20260504014826 | 73 | 353 | 1.0 | 5.0 | 0.00 | 0.19 | 0.19 | 90 | 1016.4 |
| 20260504014341 | 73 | 39 | 3.0 | 5.0 | 0.00 | 0.19 | 0.19 | 90 | 1016.3 |
| 20260504013841 | 73 | 27 | 2.0 | 5.0 | 0.00 | 0.19 | 0.19 | 90 | 1016.2 |
| 20260504013408 | 73 | 29 | 2.0 | 4.0 | 0.00 | 0.19 | 0.19 | 90 | 1016.1 |
| 20260504012855 | 73 | 45 | 2.0 | 4.0 | 0.00 | 0.19 | 0.19 | 90 | 1016.2 |
| 20260504012329 | 73 | 46 | 2.0 | 4.0 | 0.00 | 0.19 | 0.19 | 90 | 1016.1 |
| 20260504011820 | 73 | 99 | 1.0 | 4.0 | 0.00 | 0.19 | 0.19 | 90 | 1016.1 |
| 20260504011324 | 73 | 44 | 1.0 | 4.0 | 0.00 | 0.19 | 0.19 | 90 | 1016.2 |
| 20260504010845 | 73 | 25 | 2.0 | 5.0 | 0.00 | 0.19 | 0.19 | 90 | 1016.2 |
| 20260504010337 | 73 | 38 | 2.0 | 5.0 | 0.00 | 0.19 | 0.19 | 90 | 1016.1 |
| 20260504005827 | 73 | 51 | 2.0 | 5.0 | 0.00 | 0.19 | 0.19 | 90 | 1016.0 |
| 20260504005322 | 73 | 44 | 1.0 | 4.0 | 0.00 | 0.19 | 0.19 | 90 | 1016.1 |
| 20260504004835 | 73 | 49 | 2.0 | 4.0 | 0.00 | 0.19 | 0.19 | 90 | 1016.0 |
| 20260504004329 | 73 | 19 | 1.0 | 5.0 | 0.00 | 0.19 | 0.19 | 90 | 1015.9 |
| 20260504003841 | 73 | 45 | 2.0 | 6.0 | 0.00 | 0.19 | 0.19 | 90 | 1015.8 |
| 20260504003331 | 73 | 48 | 3.0 | 6.0 | 0.00 | 0.19 | 0.19 | 89 | 1015.8 |
| 20260504002823 | 73 | 8 | 3.0 | 5.0 | 0.00 | 0.19 | 0.19 | 89 | 1015.9 |
| 20260504002346 | 73 | 26 | 2.0 | 6.0 | 0.00 | 0.19 | 0.19 | 89 | 1015.7 |
| 20260504001831 | 73 | 352 | 3.0 | 6.0 | 0.00 | 0.19 | 0.19 | 89 | 1015.5 |
| 20260504001324 | 73 | 7 | 3.0 | 6.0 | 0.00 | 0.19 | 0.19 | 89 | 1015.6 |
| 20260504000838 | 73 | 337 | 2.0 | 6.0 | 0.00 | 0.19 | 0.19 | 88 | 1015.6 |
| 20260504000329 | 73 | 1 | 3.0 | 6.0 | 0.00 | 0.19 | 0.19 | 88 | 1015.6 |
| 20260503235822 | 73 | 15 | 3.0 | 8.0 | 0.00 | 0.19 | 0.19 | 88 | 1015.6 |
| 20260503235325 | 73 | 31 | 2.0 | 7.0 | 0.00 | 0.19 | 0.19 | 87 | 1015.5 |
| 20260503234848 | 74 | 25 | 2.0 | 6.0 | 0.00 | 0.19 | 0.19 | 87 | 1015.5 |
| 20260503234322 | 74 | 18 | 4.0 | 8.0 | 0.00 | 0.19 | 0.19 | 87 | 1015.5 |
| 20260503233829 | 74 | 27 | 5.0 | 8.0 | 0.00 | 0.19 | 0.19 | 86 | 1015.4 |
| 20260503233352 | 74 | 90 | 4.0 | 7.0 | 0.00 | 0.19 | 0.19 | 86 | 1015.4 |
| 20260503232845 | 74 | 44 | 5.0 | 7.0 | 0.00 | 0.19 | 0.19 | 86 | 1015.4 |
| 20260503232346 | 74 | 5 | 3.0 | 6.0 | 0.00 | 0.19 | 0.19 | 87 | 1015.4 |
| 20260503231829 | 74 | 317 | 3.0 | 7.0 | 0.00 | 0.19 | 0.19 | 86 | 1015.4 |
| 20260503231338 | 74 | 40 | 3.0 | 8.0 | 0.00 | 0.19 | 0.19 | 87 | 1015.3 |
| 20260503230829 | 74 | 46 | 4.0 | 9.0 | 0.00 | 0.19 | 0.19 | 87 | 1015.3 |
| 20260503230320 | 74 | 32 | 4.0 | 10.0 | 0.00 | 0.19 | 0.19 | 87 | 1015.3 |
| 20260503225843 | 74 | 30 | 4.0 | 10.0 | 0.00 | 0.19 | 0.19 | 87 | 1015.3 |
| 20260503225327 | 74 | 20 | 4.0 | 9.0 | 0.00 | 0.19 | 0.19 | 87 | 1015.4 |
| 20260503224821 | 74 | 51 | 3.0 | 9.0 | 0.00 | 0.19 | 0.19 | 87 | 1015.2 |
| 20260503224330 | 74 | 54 | 4.0 | 7.0 | 0.00 | 0.19 | 0.19 | 87 | 1015.3 |
| 20260503223822 | 74 | 29 | 3.0 | 7.0 | 0.00 | 0.19 | 0.19 | 87 | 1015.3 |
| 20260503223335 | 73 | 70 | 3.0 | 8.0 | 0.00 | 0.19 | 0.19 | 87 | 1015.2 |
| 20260503222901 | 73 | 67 | 3.0 | 8.0 | 0.00 | 0.19 | 0.19 | 87 | 1015.2 |
| 20260503222326 | 73 | 43 | 3.0 | 7.0 | 0.00 | 0.19 | 0.19 | 88 | 1015.2 |
| 20260503221847 | 73 | 47 | 4.0 | 7.0 | 0.00 | 0.19 | 0.19 | 88 | 1015.1 |
| 20260503221359 | 73 | 58 | 4.0 | 10.0 | 0.00 | 0.19 | 0.19 | 88 | 1015.3 |
| 20260503220850 | 73 | 40 | 5.0 | 10.0 | 0.00 | 0.19 | 0.19 | 87 | 1015.4 |
| 20260503220322 | 73 | 347 | 5.0 | 8.0 | 0.00 | 0.19 | 0.19 | 88 | 1015.5 |
| 20260503215829 | 73 | 52 | 3.0 | 10.0 | 0.00 | 0.19 | 0.19 | 88 | 1015.5 |
| 20260503215347 | 73 | 31 | 3.0 | 10.0 | 0.00 | 0.19 | 0.19 | 88 | 1015.5 |
| 20260503214838 | 74 | 352 | 4.0 | 8.0 | 0.01 | 0.19 | 0.19 | 89 | 1015.4 |
| 20260503214329 | 74 | 18 | 3.0 | 8.0 | 0.02 | 0.19 | 0.19 | 89 | 1015.3 |
| 20260503213842 | 74 | 14 | 4.0 | 8.0 | 0.03 | 0.19 | 0.19 | 89 | 1015.4 |
| 20260503213328 | 74 | 4 | 5.0 | 9.0 | 0.04 | 0.19 | 0.19 | 89 | 1015.4 |
| 20260503212819 | 74 | 359 | 4.0 | 10.0 | 0.06 | 0.19 | 0.19 | 90 | 1015.2 |
| 20260503212321 | 74 | 32 | 6.0 | 10.0 | 0.06 | 0.19 | 0.19 | 90 | 1015.3 |
| 20260503211827 | 74 | 337 | 4.0 | 10.0 | 0.06 | 0.19 | 0.19 | 90 | 1015.2 |
| 20260503211320 | 74 | 29 | 5.0 | 9.0 | 0.06 | 0.19 | 0.19 | 90 | 1015.3 |
| 20260503210829 | 74 | 21 | 7.0 | 9.0 | 0.06 | 0.19 | 0.19 | 90 | 1015.2 |
| 20260503210343 | 74 | 24 | 5.0 | 9.0 | 0.06 | 0.19 | 0.19 | 90 | 1015.4 |
| 20260503205835 | 74 | 49 | 6.0 | 9.0 | 0.06 | 0.19 | 0.19 | 90 | 1015.4 |
| 20260503205330 | 74 | 27 | 4.0 | 8.0 | 0.06 | 0.19 | 0.19 | 90 | 1015.7 |
| 20260503204845 | 74 | 27 | 2.0 | 6.0 | 0.05 | 0.18 | 0.18 | 89 | 1015.8 |
| 20260503204354 | 74 | 39 | 3.0 | 7.0 | 0.03 | 0.16 | 0.16 | 89 | 1015.9 |
| 20260503203857 | 74 | 337 | 3.0 | 7.0 | 0.03 | 0.16 | 0.16 | 89 | 1015.9 |
| 20260503203329 | 74 | 328 | 3.0 | 10.0 | 0.02 | 0.15 | 0.15 | 88 | 1015.9 |
| 20260503202841 | 75 | 340 | 4.0 | 8.0 | 0.00 | 0.13 | 0.13 | 88 | 1015.9 |
| 20260503202327 | 75 | 347 | 3.0 | 10.0 | 0.00 | 0.13 | 0.13 | 88 | 1015.9 |
| 20260503201827 | 75 | 329 | 5.0 | 10.0 | 0.00 | 0.13 | 0.13 | 88 | 1015.9 |
| 20260503201321 | 75 | 338 | 4.0 | 9.0 | 0.00 | 0.13 | 0.13 | 88 | 1016.0 |
| 20260503200835 | 75 | 359 | 5.0 | 9.0 | 0.00 | 0.13 | 0.13 | 88 | 1015.9 |
| 20260503200329 | 75 | 58 | 3.0 | 7.0 | 0.00 | 0.13 | 0.13 | 88 | 1015.8 |
| 20260503195842 | 75 | 20 | 2.0 | 6.0 | 0.00 | 0.13 | 0.13 | 88 | 1015.8 |
| 20260503195353 | 75 | 47 | 3.0 | 6.0 | 0.01 | 0.13 | 0.13 | 88 | 1015.8 |
| 20260503194908 | 75 | 338 | 2.0 | 8.0 | 0.01 | 0.13 | 0.13 | 88 | 1015.7 |
| 20260503194321 | 75 | 56 | 5.0 | 8.0 | 0.01 | 0.13 | 0.13 | 88 | 1015.5 |
| 20260503193844 | 76 | 29 | 4.0 | 7.0 | 0.01 | 0.13 | 0.13 | 88 | 1015.6 |
| 20260503193338 | 76 | 30 | 2.0 | 5.0 | 0.01 | 0.13 | 0.13 | 88 | 1015.6 |
| 20260503192827 | 76 | 54 | 1.0 | 6.0 | 0.01 | 0.13 | 0.13 | 89 | 1015.5 |
| 20260503192342 | 76 | 354 | 3.0 | 8.0 | 0.01 | 0.13 | 0.13 | 89 | 1015.3 |
| 20260503191846 | 76 | 333 | 4.0 | 8.0 | 0.01 | 0.13 | 0.13 | 88 | 1015.5 |
| 20260503191341 | 76 | 19 | 5.0 | 8.0 | 0.02 | 0.13 | 0.13 | 88 | 1015.8 |
| 20260503190836 | 76 | 327 | 4.0 | 8.0 | 0.02 | 0.13 | 0.13 | 88 | 1015.9 |
| 20260503190331 | 76 | 37 | 5.0 | 8.0 | 0.02 | 0.13 | 0.13 | 88 | 1016.0 |
| 20260503185818 | 76 | 319 | 3.0 | 7.0 | 0.02 | 0.13 | 0.13 | 88 | 1016.1 |
| 20260503185332 | 76 | 330 | 4.0 | 7.0 | 0.01 | 0.12 | 0.12 | 87 | 1016.2 |
| 20260503184835 | 76 | 340 | 3.0 | 7.0 | 0.01 | 0.12 | 0.12 | 87 | 1016.3 |
| 20260503184327 | 76 | 355 | 4.0 | 8.0 | 0.01 | 0.12 | 0.12 | 87 | 1016.4 |
| 20260503183823 | 76 | 315 | 4.0 | 8.0 | 0.02 | 0.12 | 0.12 | 87 | 1016.4 |
| 20260503183333 | 76 | 23 | 2.0 | 5.0 | 0.03 | 0.12 | 0.12 | 87 | 1016.4 |
| 20260503182828 | 76 | 29 | 2.0 | 4.0 | 0.03 | 0.12 | 0.12 | 87 | 1016.5 |
| 20260503182342 | 76 | 358 | 2.0 | 4.0 | 0.04 | 0.12 | 0.12 | 87 | 1016.5 |
| 20260503181827 | 76 | 43 | 0.0 | 4.0 | 0.04 | 0.12 | 0.12 | 87 | 1016.7 |
| 20260503181340 | 76 | 23 | 2.0 | 5.0 | 0.03 | 0.11 | 0.11 | 87 | 1016.8 |
| 20260503180829 | 76 | 22 | 2.0 | 6.0 | 0.03 | 0.11 | 0.11 | 86 | 1016.9 |
| 20260503180321 | 76 | 300 | 0.0 | 3.0 | 0.03 | 0.11 | 0.11 | 87 | 1017.1 |
| 20260503175823 | 76 | 352 | 1.0 | 3.0 | 0.03 | 0.11 | 0.11 | 86 | 1017.0 |
| 20260503175343 | 76 | 14 | 1.0 | 5.0 | 0.03 | 0.11 | 0.11 | 86 | 1017.0 |
| 20260503174838 | 76 | 22 | 3.0 | 5.0 | 0.03 | 0.11 | 0.11 | 85 | 1016.9 |
| 20260503174328 | 77 | 36 | 2.0 | 4.0 | 0.03 | 0.11 | 0.11 | 85 | 1016.9 |
| 20260503173822 | 77 | 31 | 1.0 | 4.0 | 0.02 | 0.10 | 0.10 | 85 | 1017.0 |
| 20260503173344 | 77 | 354 | 0.0 | 6.0 | 0.01 | 0.09 | 0.09 | 84 | 1017.0 |
| 20260503172819 | 77 | 39 | 3.0 | 6.0 | 0.01 | 0.09 | 0.09 | 83 | 1017.0 |
| 20260503172333 | 77 | 352 | 3.0 | 5.0 | 0.00 | 0.08 | 0.08 | 83 | 1016.9 |
| 20260503171852 | 77 | 353 | 2.0 | 4.0 | 0.00 | 0.08 | 0.08 | 83 | 1017.1 |
| 20260503171325 | 78 | 347 | 1.0 | 4.0 | 0.00 | 0.08 | 0.08 | 83 | 1017.0 |
| 20260503170819 | 78 | 359 | 1.0 | 4.0 | 0.00 | 0.08 | 0.08 | 82 | 1017.0 |
| 20260503170320 | 78 | 327 | 2.0 | 6.0 | 0.00 | 0.08 | 0.08 | 82 | 1017.2 |
| 20260503150830 | 77 | 75 | 3.0 | 6.0 | 0.00 | 0.08 | 0.08 | 85 | 1017.3 |
| 20260503150325 | 77 | 326 | 2.0 | 6.0 | 0.00 | 0.08 | 0.08 | 85 | 1017.3 |
| 20260503131409 | 73 | 48 | 1.0 | 5.0 | 0.03 | 0.07 | 0.07 | 89 | 1016.5 |
| 20260503130821 | 73 | 354 | 1.0 | 6.0 | 0.03 | 0.07 | 0.07 | 88 | 1016.5 |
| 20260503130321 | 73 | 6 | 3.0 | 6.0 | 0.02 | 0.06 | 0.06 | 88 | 1016.5 |
| 20260503110330 | 73 | 285 | 0.0 | 1.0 | 0.00 | 0.00 | 0.00 | 85 | 1015.3 |